This is the latest recevied weather packets stored in our database for station/object SP8IZA-1. If no packets are shown the sender has not sent any weather packets the latest 10 day(s).
| Time | Temp. | Humidity | Pressure | Rain* | Wind** | Luminosity | Snow |
|---|---|---|---|---|---|---|---|
| 1777567485 | 15° C | 42% | 1024.3 hPa | - | - | - | - |
| 1777567183 | 15° C | 42% | 1024.2 hPa | - | - | - | - |
| 1777566883 | 15.56° C | 41% | 1024.3 hPa | - | - | - | - |
| 1777566582 | 15.56° C | 41% | 1024.3 hPa | - | - | - | - |
| 1777566282 | 16.11° C | 41% | 1024.3 hPa | - | - | - | - |
| 1777565981 | 16.11° C | 41% | 1024.2 hPa | - | - | - | - |
| 1777565681 | 16.11° C | 41% | 1024.3 hPa | - | - | - | - |
| 1777565380 | 16.11° C | 41% | 1024.2 hPa | - | - | - | - |
| 1777565080 | 16.11° C | 41% | 1024.3 hPa | - | - | - | - |
| 1777564779 | 16.11° C | 41% | 1024.2 hPa | - | - | - | - |
| 1777564479 | 16.67° C | 41% | 1024.3 hPa | - | - | - | - |
| 1777564178 | 16.67° C | 41% | 1024.4 hPa | - | - | - | - |
| 1777563878 | 17.78° C | 40% | 1024.5 hPa | - | - | - | - |
| 1777563577 | 18.33° C | 40% | 1024.5 hPa | - | - | - | - |
| 1777563277 | 18.89° C | 40% | 1024.5 hPa | - | - | - | - |
| 1777562976 | 21.11° C | 39% | 1024.4 hPa | - | - | - | - |
| 1777562676 | 22.78° C | 38% | 1024.3 hPa | - | - | - | - |
| 1777562375 | 22.78° C | 38% | 1024.3 hPa | - | - | - | - |
| 1777562075 | 22.22° C | 38% | 1024.3 hPa | - | - | - | - |
| 1777561774 | 22.78° C | 38% | 1024.4 hPa | - | - | - | - |
| 1777561474 | 22.22° C | 38% | 1024.4 hPa | - | - | - | - |
| 1777561173 | 22.22° C | 38% | 1024.5 hPa | - | - | - | - |
| 1777560873 | 22.78° C | 38% | 1024.5 hPa | - | - | - | - |
| 1777560572 | 23.89° C | 38% | 1024.5 hPa | - | - | - | - |
| 1777560272 | 23.33° C | 38% | 1024.3 hPa | - | - | - | - |
* Rain since midnight (hover to see other rain measurements)
** Current wind speed in m/s (hover to see current wind gust speed)